This demonstration page uses our WeatherBlox Daily Observations layout. Learn more.

Left ArrowRight Arrow

44.8408, -93.29828

Hourly Observations for April 12, 2022

Temp ( °F °C ) Dew Point ( °F °C ) Humidity (%) Winds ( mph kmh ) Pressure ( in mb ) Visibility ( mi km ) Precip ( " mm )
12:53 am 00:53 Clear 44 6.7 28 -2.2 53 53 NE 5 7 29.91 1013 10 16 0.00 0.00
1:53 am 01:53 Clear 44 6.7 28 -2.2 53 53 E 5 7 29.91 1013 10 16 0.00 0.00
2:53 am 02:53 Clear 42 5.6 28 -2.2 58 58 ENE 6 9 29.90 1012 10 16 0.00 0.00
3:53 am 03:53 Clear 42 5.6 27 -2.8 55 55 E 6 9 29.88 1012 10 16 0.00 0.00
4:53 am 04:53 Clear 42 5.6 27 -2.8 55 55 ENE 6 9 29.89 1012 10 16 0.00 0.00
5:53 am 05:53 Clear 42 5.6 26 -3.3 53 53 E 10 17 29.87 1011 10 16 0.00 0.00
6:53 am 06:53 Mostly Cloudy 44 6.7 26 -3.3 49 49 E 9 15 29.85 1011 10 16 0.00 0.00
7:53 am 07:53 Cloudy 45 7.2 27 -2.8 49 49 E 9 15 29.88 1012 10 16 0.00 0.00
8:53 am 08:53 Cloudy 45 7.2 27 -2.8 49 49 SE 13 20 29.87 1012 10 16 0.00 0.00
9:53 am 09:53 Cloudy 47 8.3 29 -1.7 50 50 ESE 13 20 29.84 1010 10 16 0.00 0.00
10:53 am 10:53 Cloudy 48 8.9 28 -2.2 46 46 SE 9 15 29.84 1011 10 16 0.00 0.00
11:44 am 11:44 Cloudy 51 10.6 29 -1.7 43 43 ESE 17 28 29.78 1008 10 16 0.00 0.00
11:53 am 11:53 Cloudy 51 10.6 29 -1.7 43 43 ESE 20 31 29.76 1008 10 16 0.00 0.00
12:30 pm 12:30 Cloudy 53 11.7 28 -2.2 38 38 ESE 28 44 29.70 1006 10 16 0.00 0.00
12:53 pm 12:53 Cloudy 55 12.8 27 -2.8 34 34 ESE 26 43 29.65 1004 10 16 0.00 0.00
1:33 pm 13:33 Cloudy 56 13.3 26 -3.3 32 32 ESE 31 50 29.58 1002 10 16 0.00 0.00
1:53 pm 13:53 Cloudy with Light Rain 55 12.8 30 -1.1 38 38 E 17 28 29.56 1001 10 16 0.00 0.00
2:06 pm 14:06 Cloudy with Nearby Thunderstorms 54 12.2 32 0 43 43 E 16 26 29.57 1001 10 16 0.00 0.00
2:25 pm 14:25 Cloudy with Light Rain 53 11.7 35 1.7 51 51 ESE 17 28 29.59 1002 9 14 0.01 0.25
2:53 pm 14:53 Cloudy with Light Rain 52 11.1 35 1.7 53 53 SE 13 20 29.63 1003 10 16 0.02 0.51
3:53 pm 15:53 Cloudy with Light Rain 51 10.6 37 2.8 59 59 E 14 22 29.61 1003 10 16 0.00 0.00
4:53 pm 16:53 Cloudy with Light Rain 49 9.4 37 2.8 64 64 E 15 24 29.58 1002 10 16 0.00 0.00
5:53 pm 17:53 Cloudy with Light Rain 48 8.9 39 3.9 71 71 E 15 24 29.55 1001 10 16 0.00 0.00
6:53 pm 18:53 Cloudy 50 10 38 3.3 63 63 E 15 24 29.49 999 10 16 0.00 0.00
7:53 pm 19:53 Cloudy 51 10.6 39 3.9 64 64 E 15 24 29.44 997 10 16 0.00 0.00
8:01 pm 20:01 Cloudy with Nearby Thunderstorms 51 10.6 38 3.3 61 61 E 16 26 29.43 997 10 16 0.00 0.00
8:19 pm 20:19 Cloudy with Thunderstorms 51 10.6 38 3.3 61 61 ENE 10 17 29.40 996 10 16 0.00 0.00
8:27 pm 20:27 Cloudy with Strong Thunderstorms 50 10 39 3.9 66 66 Calm 29.46 998 3 5 0.00 0.00
8:31 pm 20:31 Cloudy with Strong Thunderstorms 49 9.4 40 4.4 71 71 E 3 6 29.48 998 2 3 0.07 1.78
8:46 pm 20:46 Cloudy with Thunderstorms 48 8.9 41 5 77 77 E 22 35 29.40 996 4 6 0.36 9.14
8:53 pm 20:53 Windy with Storms Likely 48 8.9 41 5 77 77 E 23 37 29.39 995 8 13 0.37 9.40
8:56 pm 20:56 Mostly Cloudy with Light Rain 48 8.9 41 5 77 77 ESE 22 35 29.41 996 10 16 0.00 0.00
9:29 pm 21:29 Cloudy with Nearby Thunderstorms 48 8.9 41 5 77 77 E 21 33 29.35 994 10 16 0.00 0.00
9:53 pm 21:53 Cloudy with Light Rain 47 8.3 41 5 80 80 E 20 31 29.33 993 9 14 0.00 0.00
10:00 pm 22:00 Cloudy with Nearby Thunderstorms 47 8.3 42 5.6 83 83 E 17 28 29.36 994 10 16 0.00 0.00
10:13 pm 22:13 Cloudy with Thunderstorms 47 8.3 42 5.6 83 83 NE 12 19 29.38 995 6 10 0.06 1.52
10:28 pm 22:28 Cloudy with Nearby Thunderstorms 47 8.3 42 5.6 83 83 NE 17 28 29.37 994 6 10 0.11 2.79
10:53 pm 22:53 Cloudy with Nearby Thunderstorms 47 8.3 43 6.1 86 86 NNE 12 19 29.39 995 10 16 0.15 3.81
11:02 pm 23:02 Cloudy 47 8.3 42 5.6 83 83 NE 17 28 29.38 995 10 16 0.00 0.00
11:41 pm 23:41 Cloudy with Nearby Thunderstorms 46 7.8 42 5.6 86 86 NE 9 15 29.36 994 10 16 0.00 0.00
11:53 pm 23:53 Cloudy 46 7.8 42 5.6 86 86 NNE 13 20 29.36 994 10 16 0.00 0.00

Powered by AerisWeather